Flag for Belgium Weather past 2 weeks in Mechelen, Belgium

Now
32 °F

Clear.


Feels Like: 25 °F
Forecast: 44 / 50 °F
Wind: 8 mph from South

Location: Brussels National Airport

Current Time: Feb 28, 2015 at 6:22:12 AM

Latest Report: Feb 28, 2015 at 5:50 AM


Visibility: 10 mi

Pressure: 30.09 "Hg

Humidity: 87%

Dew point: 28 °F

Location of MechelenLocation

Historic Weather in Mechelen — Graph

°F

Mechelen temperature yesterday

Maximum temperature yesterday: 45 °F (at 1:20 PM)
Minimum temperature yesterday: 32 °F (at 10:50 PM)
Average temperature yesterday: 40 °F

Past Weeks' High & Low Weather Summary

 TemperatureHumidityPressure
High52 °F (Feb 13, 3:20 PM)100% (Feb 15, 8:20 AM)30.74 "Hg (Feb 15, 8:20 AM)
Low28 °F (Feb 16, 4:20 AM)54% (Feb 23, 1:50 PM)29.33 "Hg (Feb 23, 7:50 AM)
Average40 °F84%29.95 "Hg
* Reported Feb 13 5:20 AM — Feb 28 5:20 AM, Mechelen, Weather by CustomWeather, © 2015

Note: Actual official high and low records may vary slightly from our data, if they occured in-between our weather recording intervals... More about our weather records

Advertising

Mechelen weather history for previous 24 hours

 ConditionsComfort  
Time TempWeatherWind HumidityBarometerVisibility
5:20 AM
Sat, Feb 28
30 °FClear.6 mph93%30.09 "Hg10 mi
4:50 AM30 °FClear.6 mph93%30.12 "Hg10 mi
4:20 AM30 °FClear.6 mph93%30.12 "Hg10 mi
3:50 AM32 °FClear.7 mph87%30.12 "Hg10 mi
3:20 AM30 °FClear.6 mph93%30.12 "Hg10 mi
2:50 AM30 °FClear.6 mph86%30.15 "Hg10 mi
2:20 AM30 °FClear.6 mph86%30.15 "Hg10 mi
1:50 AM32 °FClear.7 mph87%30.15 "Hg10 mi
1:20 AM32 °FClear.7 mph87%30.15 "Hg10 mi
12:50 AM32 °FClear.7 mph87%30.15 "Hg10 mi
12:20 AM32 °FClear.7 mph87%30.15 "Hg10 mi
11:50 PM
Fri, Feb 27
32 °FClear.6 mph87%30.15 "Hg10 mi
11:20 PM32 °FClear.6 mph87%30.15 "Hg10 mi
10:50 PM32 °FClear.5 mph93%30.18 "Hg10 mi
10:20 PM34 °FClear.3 mph87%30.18 "Hg10 mi
9:50 PM34 °FClear.2 mph87%30.18 "Hg10 mi
9:20 PM34 °FClear.3 mph87%30.18 "Hg10 mi
8:50 PM36 °FClear.3 mph81%30.18 "Hg10 mi
8:20 PM36 °FClear.5 mph81%30.18 "Hg10 mi
7:50 PM37 °FClear.6 mph75%30.15 "Hg10 mi
7:20 PM39 °FPassing clouds.6 mph70%30.15 "HgN/A
6:50 PM39 °FPassing clouds.6 mph65%30.15 "HgN/A
6:20 PM41 °FPassing clouds.8 mph61%30.12 "HgN/A
5:50 PM41 °FPassing clouds.8 mph61%30.12 "HgN/A
5:20 PM43 °FScattered clouds.9 mph57%30.12 "HgN/A
4:50 PM43 °FScattered clouds.10 mph57%30.12 "HgN/A
4:20 PM43 °FScattered clouds.12 mph57%30.09 "HgN/A
3:50 PM43 °FScattered clouds.12 mph61%30.09 "HgN/A
3:20 PM45 °FScattered clouds.13 mph57%30.09 "HgN/A
2:50 PM45 °FScattered clouds.13 mph57%30.09 "HgN/A
2:20 PM45 °FScattered clouds.14 mph57%30.07 "HgN/A
1:50 PM45 °FScattered clouds.13 mph61%30.07 "HgN/A
1:20 PM45 °FScattered clouds.12 mph61%30.07 "HgN/A
12:50 PM43 °FScattered clouds.13 mph61%30.07 "HgN/A
12:20 PM43 °FScattered clouds.14 mph66%30.07 "HgN/A
11:50 AM43 °FScattered clouds.14 mph66%30.07 "HgN/A
11:20 AM41 °FScattered clouds.13 mph76%30.04 "HgN/A
10:50 AM43 °FScattered clouds.12 mph76%30.04 "HgN/A
10:20 AM41 °FPassing clouds.9 mph81%30.04 "HgN/A
9:50 AM41 °FPassing clouds.9 mph81%30.01 "HgN/A
9:20 AM39 °FPassing clouds.8 mph81%30.01 "HgN/A
8:50 AM39 °FPassing clouds.7 mph81%30.01 "HgN/A
8:20 AM37 °FPassing clouds.7 mph87%29.98 "HgN/A
7:50 AM39 °FPassing clouds.9 mph81%29.98 "HgN/A
7:20 AM39 °FPassing clouds.12 mph87%29.98 "HgN/A
6:50 AM41 °FPassing clouds.12 mph81%29.95 "HgN/A
6:20 AM41 °FPartly cloudy.13 mph81%29.95 "HgN/A
Weather by CustomWeather, © 2015

See weather overviewHow to use our weather pages